Weather in Cheremkhovo

Russia / Zabaykalsky Krai     50°34′46″N   110°09′25″E
temp.,
°C
wind,
m/s
gust,
m/s
humid.,
%
clouds,
%
prec.,
mm/h
press.,
hPa
HPBL,
m
23 january, sun
sun2300:00−17ese1196100 0.0 103421
03:00−17ese1197100 0.0 103417
06:00−20ese1197100 0.0 103415
09:00−17e1296100 0.0 103241
12:00−13ne1193100 0.3 1030188
15:00−11nne1190100 0.8 1028310
18:00−12w1197100 0.4 102821
21:00−14wsw1197100 0.7 102910
24 january, mon
mon2400:00−15w1198100 0.3 103012
03:00−17wsw119898 0.6 103111
06:00−17wsw1198100 0.2 103119
09:00−18wsw1199100 0.4 103221
12:00−15w2490100 0.2 1031468
15:00−14w3485100 0.4 1029734
18:00−14w3694100 0.3 1030449
21:00−16w2796100 0.4 1032373
25 january, tue
tue2500:00−16w3796100 0.3 1032412
03:00−17w3796100 0.5 1032436
06:00−17w3896100 0.3 1032464
09:00−18w389697 0.4 1033429
12:00−16w4890100 0.1 1033694
15:00−14w5884100 0.3 10321084
18:00−16w3890100 0.2 1033411
21:00−20w2598100 0.3 1036286
26 january, wed
wed2600:00−21w2498100 0.1 1037164
03:00−21wsw1499100 0.3 1038129
06:00−23sw1199100 0.1 103915
09:00−23sw1199100 0.2 104012
12:00−18wnw139399 0.1 1038253
15:00−15wnw2584100 0.1 1036676
18:00−19wsw119945 0.0 10389
21:00−24s119869 0.1 104212
27 january, thu
thu2700:00−25s119778 0.0 104311
03:00−26s119863 0.1 104410
06:00−27sse119855 0.0 104510
09:00−29sse119849 0.1 104510
12:00−20n109450 0.0 1041120
15:00−15nw118552 0.0 1036271
18:00−19wsw119713 0.0 10379
21:00−25s119841 0.0 104110